www.pogodaiklimat.ru

Погода и климат >> Архив погоды >> Россия >> Магаданская область >> Ягодное


ПОГОДА в Ягодной

  • Прогноз погоды в Ягодной
  • Монитор погоды в Ягодной

АРХИВ ПОГОДЫ в Ягодной

Время (UTC), дата Ветер
(напр.,м/с)
 
Видим.   Явления Облачность Т
(С)
Тd
(С)
f
(%)
Тe
(С)
Тes
(С)
Комфортность P
(гПа)
Po
(гПа)
Тmin
(С)
Tmax
(С)
R
(мм)
R24
(мм)
S
(см)
09 15.08 штиль 0 50 км 4/0
[Ci fib]
+14.9 +6.5 57 +15 +15 1020.3 960.0 +19.7
12 15.08 В 1 50 км 3/0
[Ci fib]
+6.5 +3.7 82 +6 +6 1023.6 961.3
15 15.08 СЗ 1 50 км ясно +1.9 +1.5 97 -0 -0 1026.2 962.7
18 15.08 З 1 20 км туман на расстоянии ясно +0.9 +0.9 100 -1 -1 1027.8 964.0
21 15.08 СЗ 1 50 км 5/0
[Ci fib]
+3.3 +3.2 99 +2 +4 1026.4 963.1 +0.4
00 16.08 Ю 1 50 км 4/0
[Ci fib]
+14.5 +6.6 59 +15 +20 1024.6 964.0
03 16.08 Ю 1 50 км ясно +19.4 +3.5 35 +21 +31 комфорт 1022.3 962.7
06 16.08 ЮЗ 1 50 км ясно +21.3 +4.8 34 +22 +26 комфорт 1020.4 961.3
09 16.08 штиль 0 50 км ясно +16.9 +7.8 55 +17 +17 1020.7 960.7 +21.4
12 16.08 штиль 0 50 км ясно +8.1 +5.6 84 +7 +7 1024.7 962.7
15 16.08 СЗ 1 50 км ясно +3.9 +3.6 98 +2 +2 1025.7 962.7
18 16.08 СЗ 1 50 км ясно +1.1 +1.0 99 -1 -1 1027.8 964.0
21 16.08 СЗ 1 50 км ясно +4.3 +4.0 98 +3 +5 1026.3 963.3 +0.6
00 17.08 З 1 50 км ясно +15.6 +6.6 55 +16 +25 1023.0 962.7
03 17.08 З 1 50 км 4/0
[Ci fib]
+20.8 +7.1 41 +23 +29 комфорт 1021.9 962.7
06 17.08 Ю 1 50 км 3/0
[Ci fib]
+22.1 +3.7 30 +22 +24 комфорт 1020.2 961.3 +22.7
09 17.08 В 1 н/о н/о +16.6 +7.6 55 +18 +18 1021.1 961.0 +22.7
12 17.08 С 1 50 км 3/0
[Ci fib]
+8.3 +6.3 87 +8 +8 1024.6 962.7
15 17.08 СЗ 1 50 км ясно +4.2 +3.8 97 +3 +3 1027.0 964.0
18 17.08 СЗ 1 50 км ясно +2.2 +2.1 99 0 0 1027.5 964.0
21 17.08 З 1 50 км ясно +4.5 +4.2 98 +3 +5 1026.6 963.5 +1.2
00 18.08 ЮЗ 1 50 км 3/0
[Ci fib]
+16.7 +5.3 47 +18 +25 1024.2 964.0
03 18.08 ЮВ 2 50 км 3/0
[Ci fib]
+20.7 +2.5 30 +22 +29 комфорт 1022.0 962.7
06 18.08 ЮВ 2 50 км 3/0
[Ci fib]
+21.7 +2.9 29 +22 +25 комфорт 1020.3 961.3
09 18.08 В 1 50 км 3/0
[Ci fib]
+16.3 +4.0 44 +17 +17 1021.2 961.0 +22.0
12 18.08 СЗ 1 50 км 3/0
[Ci fib]
+6.4 +2.7 77 +5 +5 1025.1 962.7
15 18.08 СЗ 1 50 км 3/0
[Ci fib]
+2.6 +1.1 90 +1 +1 1027.4 964.0
18 18.08 СЗ 1 50 км ясно +1.7 +0.8 94 -0 -0 1029.0 965.3
21 18.08 З 1 50 км 5/0
[Ci fib]
+4.0 +2.1 87 +3 +5 1027.5 964.3 +0.2
00 19.08 ЮВ 1 50 км 5/0
[Ci fib]
+17.1 +4.4 43 +18 +22 1024.1 964.0
03 19.08 Ю 2 50 км 7 баллов +23.0 +3.0 27 +23 +25 комфорт 1021.5 962.7
06 19.08 В 1 50 км 6/0
[Ci fib]
+24.2 +5.0 29 +24 +26 комфорт 1019.8 961.3
09 19.08 СВ 1 50 км 6/0
[Ac trans Ci fib]
+18.9 +9.4 54 +21 +21 комфорт 1020.8 961.3 +24.3
12 19.08 СЗ 1 50 км 3/0
[Ci fib]
+10.7 +5.9 72 +11 +11 1024.1 962.7
15 19.08 З 1 50 км ясно +7.0 +4.8 86 +6 +6 1025.0 962.7
18 19.08 СЗ 2 50 км ясно +3.3 +2.9 97 0 0 1027.2 964.0
21 19.08 СЗ 1 50 км ясно +7.4 +5.9 90 +6 +9 1025.1 962.8 +2.6
00 20.08 ЮЗ 1 50 км 1/0
[Ci fib]
+20.4 +7.7 44 +23 +30 комфорт 1022.0 962.7
03 20.08 СВ 1 50 км 5/3 1000 м
[Cu hum Ac trans Ci fib]
+23.6 +6.4 33 +24 +29 комфорт 1019.9 961.3
06 20.08 З 2 50 км 1/0
[Ci fib]
+25.8 +6.4 29 +25 +29 комфорт 1018.1 960.0
09 20.08 СЗ 1 50 км ясно +21.8 +8.8 43 +23 +23 комфорт 1017.9 959.0 +26.3
12 20.08 штиль 0 50 км 1/0
[Ci fib]
+11.8 +8.3 79 +11 +11 1022.3 961.3
15 20.08 СЗ 1 50 км ясно +8.0 +6.3 89 +7 +7 1023.2 961.3
18 20.08 СЗ 2 50 км 3/0
[Ci fib]
+5.5 +5.1 97 +3 +3 1023.8 961.3
21 20.08 СЗ 1 50 км 5/0
[Ci fib]
+9.2 +7.6 90 +9 +10 1022.2 960.5 +5.0
00 21.08 З 1 50 км 3/0
[Ci fib]
+20.7 +9.3 48 +23 +30 комфорт 1019.0 960.0
03 21.08 З 1 50 км 4/3 1000 м
[Cu hum Ac trans Ci fib]
+26.7 +6.7 28 +26 +32 жарко 1016.5 958.7
06 21.08 ЮЗ 1 50 км 6/3 1000 м
[Cu hum Ac trans Ci fib]
+28.2 +6.9 26 +27 +29 жарко 1014.7 957.3
09 21.08 З 1 50 км 8/3 1000 м
[Sc Ci fib]
+20.9 +10.1 50 +24 +24 комфорт 1015.3 956.4 +28.2
12 21.08 штиль 0 50 км 8/3 1000 м
[Sc Ci fib]
+13.9 +9.1 73 +14 +14 1019.1 958.7
15 21.08 СЗ 1 50 км 5 баллов +9.3 +7.7 90 +9 +9 1020.1 958.7
18 21.08 СЗ 1 50 км 4 балла +7.1 +6.4 95 +6 +6 1022.0 960.0
21 21.08 штиль 0 50 км 8/0
[Ci fib]
+10.5 +8.6 88 +10 +12 1020.5 959.2 +6.8
00 22.08 ЮЗ 1 50 км 7 баллов +20.3 +10.1 52 +23 +25 комфорт 1019.1 960.0
03 22.08 Ю 2 50 км 7 баллов +25.1 +8.6 35 +26 +28 жарко 1016.8 958.7
06 22.08 Ю 2 50 км 7 баллов +26.2 +8.2 32 +26 +27 жарко 1015.1 957.3

 

Местоположение метеостанции Ягодное (Магаданская область, Россия): широта 62.51 долгота 149.60 высота над уровнем моря 518 м.

В архиве по умолчанию представлена погода в Ягодной за последнюю неделю. Архивные данные за месяц целиком и за предыдущие месяцы, начиная с января 2011 года, Вы можете получить, выбрав интересующий диапазон дат из раскрывающегося списка и нажав кнопку "Ввод!".


*Определитесь, кто Вы:
робот инопланетянин человек

Внимание! Время в таблицах - всемирное. Для получения местного времени необходимо прибавить поправку, которая равна 11 ч.

Смотрите также архив погоды в соседних городах и на ближайших метеорологических станциях:

Погода на Озере Джека Лондона (Магаданская область, Россия) (48 км)
Погода в Совхозе Эльген (Магаданская область, Россия) (60 км)
Погода в Усть-Бохапче (Магаданская область, Россия) (69 км)
Погода в Сусумане (Магаданская область, Россия) (82 км)
Погода в Колымской (Магаданская область, Россия) (127 км)
Погода в Среднекане (Магаданская область, Россия) (139 км)
Погода в Сеймчане (Магаданская область, Россия) (150 км)
Погода в Усть-Омчуге (Магаданская область, Россия) (155 км)
Погода в Талой (Магаданская область, Россия) (209 км)
Погода в Мадауне (Магаданская область, Россия) (220 км)

Пояснения к столбцам:

Ветер - указаны скорость ветра в м/с - средняя за 10 мин, порывы в срок и между сроками (в фигурных скобках) и направление, откуда дует ветер: С - северный, СВ - северо-восточный, В - восточный, ЮВ - юго-восточный, Ю - южный, ЮЗ - юго-западный, З - западный, СЗ - северо-западный.
Видимость - горизонтальная дальность видимости в метрах или километрах. При видимости от 1 до 10 км при отсутствии осадков обычно наблюдается дымка, при ухудшении видимости до 1 км и менее - туман. В сухую погоду видимость может ухудшаться дымом, пылью или мглою.
Явления - указаны атмосферные явления, наблюдавшиеся в срок или в последний час перед сроком; фигурными скобками обозначены явления, наблюдавшиеся между сроками (за 1-3 часа до срока); квадратными скобками обозначены град или гололедные отложения с указанием их диаметра в мм.
Облачность - указаны через наклонную черту общая и нижняя облачность в баллах и высота нижней границы облаков в метрах; квадратными скобками обозначены формы облаков: Ci - перистые, Cs - перисто-слоистые, Cc - перисто-кучевые, Ac - высококучевые, As - высокослоистые, Sc - слоисто-кучевые, Ns - слоисто-дождевые, Cu - кучевые, Cb - кучево-дождевые. Подробнее классификацию облаков см. в Атласе облаков (PDF).
T - Температура воздуха - температура, измеренная на высоте 2 м над землей.
Td - Температура точки росы - температура, при понижении до которой содержащийся в воздухе водяной пар достигнет насыщения.
f - Относительная влажность воздуха - влажноcть воздуха, измеренная на высоте 2 м над землей.
Te - Эффективная температура - температура, которую ощущает одетый по сезону человек в тени. Характеристика душности погоды. При расчете учитывается влияние влажности воздуха и скорости ветра на теплоощущения человека.
Tes - Эффективная температура на солнце - температура, которую ощущает человек, с поправкой на солнечный нагрев. Характеристика знойности погоды. Зависит от высоты солнца над горизонтом, облачности и скорости ветра. Ночью, в пасмурную погоду, а также при ветре 12 м/с и более поправка равна нулю.
P - Атмосферное давление - приведенное к уровню моря атмосферное давление.
Po - Атмосферное давление - измеренное на уровне метеостанции атмосферное давление.
Tmin - Минимальная температура - минимум температуры воздуха на высоте 2 м над землей.
Tmax - Максимальная температура - максимум температуры воздуха на высоте 2 м над землей.
R - Количество осадков - Количество выпавших осадков за период времени, мм. При наведении курсора мыши на число - период времени, за который выпало указанное количество осадков.
R24 - Количество осадков - Количество выпавших осадков за 24 часа, мм.
S - Снежный покров - Высота снежного покрова, см. При наведении курсора мыши на число - состояние снежного покрова и степень покрытия местности в баллах.